Date String (YYYY-MM-DD hh:mm:ss) UTC,Instrument flags,absolute air pressure of the measurement (hPa),sample flow rate (lpm),inlet stack bypass flow (lpm),air temperature of the measurement (°C),ambient temperature measured by the external sensor (°C),aerosol sample conditioner tube jacket temperature (°C),OPC LED temperature (°C),internal box temperature (°C),relative humidity of the measurement (%),span deviation,mass concentration of particles derived from Lorenz-Mie calculation of OPC scattering (μg/m³),mass concentration of particles derived from Lorenz-Mie calculation of OPC scattering (μg/m³),mass concentration of particles derived from Lorenz-Mie calculation of OPC scattering (μg/m³)
DateTimeUTC,F1_M11,P_M11,Q1_M11,Q2_M11,T1_M11,T2_M11,T3_M11,T4_M11,T5_M11,U1_M11,ZSPAN_M11,X2_M11,X0_M11,X1_M11
2024-03-09 19:00:00,SystemResetWarning,0831.6,5.01,000.00,019.4,019.1,000.0,027.7,021.2,18.1,0000.0,0004.53,0008.69,0004.24
2024-03-09 19:01:00,SystemResetWarning,0831.5,5.00,000.00,019.5,019.1,000.0,027.7,021.2,17.2,0000.0,0004.57,0008.84,0004.25
2024-03-09 19:02:00,SystemResetWarning,0831.6,4.99,000.00,019.5,019.1,000.0,027.7,021.2,16.9,0000.0,0004.58,0008.72,0004.25
2024-03-09 19:03:00,SystemResetWarning,0831.5,4.99,000.00,019.5,019.1,000.0,027.7,021.2,16.8,0000.0,0004.60,0008.57,0004.25
2024-03-09 19:04:00,SystemResetWarning,0831.5,5.00,000.00,019.5,019.1,000.0,027.7,021.2,16.6,0000.0,0004.61,0008.43,0004.25
2024-03-09 19:05:00,SystemResetWarning,0831.5,5.01,000.00,019.5,019.1,000.0,027.8,021.2,17.0,0000.0,0004.60,0008.28,0004.25
2024-03-09 19:06:00,SystemResetWarning,0831.5,5.01,000.00,019.5,019.1,000.0,027.8,021.3,16.6,0000.0,0004.63,0008.32,0004.26
2024-03-09 19:07:00,SystemResetWarning,0831.5,5.00,000.00,019.5,019.1,000.0,027.8,021.3,16.7,0000.0,0004.64,0008.30,0004.27
2024-03-09 19:08:00,SystemResetWarning,0831.4,4.98,000.00,019.5,019.1,000.0,027.8,021.3,16.3,0000.0,0004.66,0008.37,0004.29
2024-03-09 19:09:00,SystemResetWarning,0831.5,5.01,000.00,019.5,019.2,000.0,027.8,021.3,16.9,0000.0,0004.66,0008.16,0004.30
2024-03-09 19:10:00,SystemResetWarning,0831.4,5.01,000.00,019.6,019.2,000.0,027.8,021.3,16.6,0000.0,0004.68,0007.98,0004.32
2024-03-09 19:11:00,SystemResetWarning,0831.4,5.00,000.00,019.6,019.2,000.0,027.8,021.3,16.9,0000.0,0004.71,0008.02,0004.34
2024-03-09 19:12:00,SystemResetWarning,0831.4,5.00,000.00,019.6,019.2,000.0,027.8,021.3,16.5,0000.0,0004.68,0007.85,0004.35
2024-03-09 19:13:00,SystemResetWarning,0831.4,4.98,000.00,019.6,019.2,000.0,027.8,021.4,15.9,0000.0,0004.68,0007.45,0004.37
2024-03-09 19:14:00,SystemResetWarning,0831.3,5.00,000.00,019.6,019.2,000.0,027.9,021.4,15.8,0000.0,0004.69,0006.92,0004.38
2024-03-09 19:15:00,SystemResetWarning,0831.3,5.00,000.00,019.6,019.3,000.0,027.9,021.4,15.7,0000.0,0004.70,0006.88,0004.40
2024-03-09 19:16:00,SystemResetWarning,0831.3,5.01,000.00,019.7,019.3,000.0,027.9,021.4,15.4,0000.0,0004.71,0007.02,0004.41
2024-03-09 19:17:00,SystemResetWarning,0831.3,5.00,000.00,019.7,019.3,000.0,027.9,021.4,15.6,0000.0,0004.71,0007.15,0004.42
2024-03-09 19:18:00,SystemResetWarning,0831.3,5.00,000.00,019.7,019.3,000.0,027.9,021.5,14.8,0000.0,0004.71,0007.30,0004.42
2024-03-09 19:19:00,SystemResetWarning,0831.3,4.99,000.00,019.7,019.3,000.0,027.9,021.5,14.8,0000.0,0004.72,0007.30,0004.43
2024-03-09 19:20:00,SystemResetWarning,0831.3,4.99,000.00,019.7,019.3,000.0,028.0,021.5,15.2,0000.0,0004.74,0007.32,0004.43
2024-03-09 19:21:00,SystemResetWarning,0831.3,5.00,000.00,019.7,019.3,000.0,028.0,021.5,14.6,0000.0,0004.73,0007.32,0004.42
2024-03-09 19:22:00,SystemResetWarning,0831.3,5.00,000.00,019.7,019.3,000.0,028.0,021.5,14.4,0000.0,0004.74,0007.35,0004.43
2024-03-09 19:23:00,SystemResetWarning,0831.3,5.00,000.00,019.7,019.4,000.0,028.0,021.5,14.4,0000.0,0004.74,0007.38,0004.43
2024-03-09 19:24:00,SystemResetWarning,0831.3,4.99,000.00,019.8,019.4,000.0,028.0,021.5,14.6,0000.0,0004.76,0007.45,0004.43
2024-03-09 19:25:00,SystemResetWarning,0831.3,5.00,000.00,019.8,019.4,000.0,028.0,021.6,14.4,0000.0,0004.79,0007.67,0004.43
2024-03-09 19:26:00,SystemResetWarning,0831.3,5.00,000.00,019.8,019.4,000.0,028.0,021.6,13.7,0000.0,0004.80,0007.70,0004.42
2024-03-09 19:27:00,SystemResetWarning,0831.3,5.00,000.00,019.8,019.4,000.0,028.0,021.6,13.5,0000.0,0004.81,0007.78,0004.43
2024-03-09 19:28:00,SystemResetWarning,0831.3,5.00,000.00,019.8,019.4,000.0,028.1,021.6,14.0,0000.0,0004.81,0008.31,0004.44
2024-03-09 19:29:00,SystemResetWarning,0831.3,5.00,000.00,019.8,019.4,000.0,028.1,021.6,13.9,0000.0,0004.83,0008.27,0004.44
2024-03-09 19:30:00,SystemResetWarning,0831.3,5.00,000.00,019.8,019.4,000.0,028.1,021.6,14.2,0000.0,0004.84,0008.34,0004.45
2024-03-09 19:31:00,SystemResetWarning,0831.3,5.00,000.00,019.9,019.4,000.0,028.1,021.6,13.7,0000.0,0004.84,0008.46,0004.44
2024-03-09 19:32:00,SystemResetWarning,0831.3,5.00,000.00,019.9,019.4,000.0,028.1,021.6,13.9,0000.0,0004.83,0008.44,0004.45
2024-03-09 19:33:00,SystemResetWarning,0831.2,5.00,000.00,019.9,019.5,000.0,028.1,021.6,13.3,0000.0,0004.81,0008.45,0004.45
2024-03-09 19:34:00,SystemResetWarning,0831.3,5.00,000.00,019.9,019.5,000.0,028.1,021.6,12.8,0000.0,0004.81,0008.49,0004.44
2024-03-09 19:35:00,SystemResetWarning,0831.2,5.00,000.00,019.9,019.5,000.0,028.1,021.6,12.8,0000.0,0004.79,0008.43,0004.43
2024-03-09 19:36:00,SystemResetWarning,0831.2,4.98,000.00,019.9,019.5,000.0,028.2,021.7,13.2,0000.0,0004.77,0008.25,0004.43
2024-03-09 19:37:00,SystemResetWarning,0831.2,5.00,000.00,019.9,019.5,000.0,028.2,021.7,13.0,0000.0,0004.75,0008.21,0004.42
2024-03-09 19:38:00,SystemResetWarning,0831.1,5.01,000.00,019.9,019.5,000.0,028.2,021.7,12.7,0000.0,0004.74,0008.19,0004.41
2024-03-09 19:39:00,SystemResetWarning,0831.1,5.00,000.00,019.9,019.5,000.0,028.2,021.7,13.2,0000.0,0004.74,0007.54,0004.41
2024-03-09 19:40:00,SystemResetWarning,0831.1,5.00,000.00,019.9,019.5,000.0,028.2,021.7,13.4,0000.0,0004.73,0007.48,0004.40
2024-03-09 19:41:00,SystemResetWarning,0831.1,5.00,000.00,020.0,019.5,000.0,028.2,021.7,13.9,0000.0,0004.71,0007.43,0004.39
2024-03-09 19:42:00,SystemResetWarning,0831.0,5.00,000.00,020.0,019.6,000.0,028.2,021.7,13.4,0000.0,0004.66,0007.25,0004.36
2024-03-09 19:43:00,SystemResetWarning,0831.0,5.00,000.00,020.0,019.6,000.0,028.2,021.8,12.8,0000.0,0004.66,0007.32,0004.33
2024-03-09 19:44:00,SystemResetWarning,0830.9,5.00,000.00,020.0,019.6,000.0,028.2,021.8,13.5,0000.0,0004.65,0007.41,0004.31
2024-03-09 19:45:00,SystemResetWarning,0830.9,5.00,000.00,020.0,019.6,000.0,028.3,021.8,13.7,0000.0,0004.61,0007.52,0004.29
2024-03-09 19:46:00,SystemResetWarning,0830.9,5.00,000.00,020.0,019.6,000.0,028.3,021.8,13.2,0000.0,0004.61,0007.59,0004.29
2024-03-09 19:47:00,SystemResetWarning,0830.9,5.00,000.00,020.0,019.6,000.0,028.3,021.8,13.0,0000.0,0004.59,0007.58,0004.28
2024-03-09 19:48:00,SystemResetWarning,0830.9,5.00,000.00,020.1,019.6,000.0,028.3,021.8,13.1,0000.0,0004.59,0007.58,0004.28
2024-03-09 19:49:00,SystemResetWarning,0831.0,4.99,000.00,020.1,019.6,000.0,028.3,021.8,13.0,0000.0,0004.58,0007.58,0004.28
2024-03-09 19:50:00,SystemResetWarning,0830.9,4.99,000.00,020.1,019.7,000.0,028.3,021.8,12.9,0000.0,0004.56,0007.59,0004.27
2024-03-09 19:51:00,SystemResetWarning,0830.9,5.00,000.00,020.1,019.7,000.0,028.3,021.8,13.2,0000.0,0004.54,0007.55,0004.26
2024-03-09 19:52:00,SystemResetWarning,0830.8,5.01,000.00,020.1,019.7,000.0,028.3,021.9,13.5,0000.0,0004.56,0007.60,0004.26
2024-03-09 19:53:00,SystemResetWarning,0830.8,5.01,000.00,020.1,019.7,000.0,028.4,021.9,13.5,0000.0,0004.58,0007.63,0004.26
2024-03-09 19:54:00,SystemResetWarning,0830.8,5.00,000.00,020.1,019.7,000.0,028.4,021.9,13.0,0000.0,0004.59,0007.71,0004.28
2024-03-09 19:55:00,SystemResetWarning,0830.8,4.99,000.00,020.1,019.7,000.0,028.4,021.9,13.0,0000.0,0004.63,0007.73,0004.30
2024-03-09 19:56:00,SystemResetWarning,0830.8,4.99,000.00,020.2,019.8,000.0,028.4,021.9,13.0,0000.0,0004.65,0007.55,0004.32
2024-03-09 19:57:00,SystemResetWarning,0830.8,4.99,000.00,020.2,019.8,000.0,028.4,021.9,13.1,0000.0,0004.69,0007.88,0004.35
2024-03-09 19:58:00,SystemResetWarning,0830.8,5.00,000.00,020.2,019.8,000.0,028.4,022.0,12.5,0000.0,0004.73,0007.96,0004.36
2024-03-09 19:59:00,SystemResetWarning,0830.8,5.01,000.00,020.2,019.8,000.0,028.4,022.0,12.7,0000.0,0004.74,0007.98,0004.36
